Yankton, SD

11:47 PM CDT on September 24, 2016 (GMT -0500)
Gurney Municipal

Weather History for KYKN - September, 2013

Change the Weather History Date:

Friday, September 20, 2013

  Actual Average Record
Temperature  
Mean Temperature 57 °F -  
Max Temperature 68 °F 73 °F 100 °F (1984)
Min Temperature 46 °F 48 °F 29 °F (1991)
Degree Days  
Heating Degree Days 8    
Growing Degree Days 7 (Base 50)    
Moisture  
Dew Point 42 °F    
Average Humidity 62    
Maximum Humidity 87    
Minimum Humidity 33    
Precipitation  
Precipitation 0.00 in - - ()
Sea Level Pressure  
Sea Level Pressure 30.02 in    
Wind  
Wind Speed 12 mph (WNW)    
Max Wind Speed 22 mph    
Max Gust Speed 32 mph    
Visibility 10 miles    
Events      
Averages and records for this station are not official NWS values.
T = Trace of Precipitation, MM = Missing Value Source: NWS Daily Summary

Daily Weather History Graph

Daily Weather History Graph

Search for Another Location

Airport or City:

Trip Planner

Search our weather history database for the weather conditions in past years. The results will help you decide how hot, cold, wet, or windy it might be!

Date:

Astronomy

Sep. 20, 2013 Rise Set
Actual Time 7:14 AM CDT 7:29 PM CDT
Civil Twilight 6:46 AM CDT 7:58 PM CDT
Nautical Twilight 6:13 AM CDT 8:31 PM CDT
Astronomical Twilight 5:39 AM CDT 9:05 PM CDT
Moon 8:00 PM CDT (9/20) 8:34 AM CDT (9/20)
Length of Visible Light 13h 11m
Length of Day
12h 14m
Full, 98% of the Moon is Illuminated
Sep 20
Full
Sep 26
Last Quarter
Oct 4
New
Oct 11
First Quarter
Oct 18
Full

Hourly Weather History & Observations

Time (CDT) Temp. Windchill Dew Point Humidity Pressure Visibility Wind Dir Wind Speed Gust Speed Precip Events Conditions
12:15 AM 51.8 °F - 44.6 °F 76% 30.02 in 10.0 mi West 9.2 mph - N/A   Clear
12:35 AM 51.8 °F - 44.6 °F 76% 30.03 in 10.0 mi West 11.5 mph - N/A   Clear
12:55 AM 51.8 °F - 44.6 °F 76% 30.03 in 10.0 mi West 12.7 mph - N/A   Clear
1:15 AM 51.8 °F - 42.8 °F 71% 30.03 in 10.0 mi West 11.5 mph - N/A   Clear
1:35 AM 51.8 °F - 42.8 °F 71% 30.04 in 10.0 mi West 11.5 mph - N/A   Clear
1:55 AM 51.8 °F - 42.8 °F 71% 30.03 in 10.0 mi West 12.7 mph - N/A   Clear
2:15 AM 51.8 °F - 42.8 °F 71% 30.03 in 10.0 mi West 12.7 mph - N/A   Clear
2:35 AM 50.0 °F - 42.8 °F 76% 30.03 in 10.0 mi West 13.8 mph - N/A   Clear
2:55 AM 50.0 °F - 42.8 °F 76% 30.02 in 10.0 mi West 12.7 mph - N/A   Clear
3:15 AM 50.0 °F - 42.8 °F 76% 30.02 in 10.0 mi West 10.4 mph - N/A   Clear
3:35 AM 48.2 °F - 42.8 °F 82% 30.02 in 10.0 mi West 13.8 mph - N/A   Clear
3:55 AM 48.2 °F - 42.8 °F 82% 30.02 in 10.0 mi West 12.7 mph - N/A   Clear
4:15 AM 48.2 °F - 42.8 °F 82% 30.03 in 10.0 mi West 12.7 mph - N/A   Clear
4:35 AM 48.2 °F - 42.8 °F 82% 30.03 in 10.0 mi West 11.5 mph - N/A   Clear
4:55 AM 48.2 °F - 42.8 °F 82% 30.03 in 10.0 mi West 10.4 mph - N/A   Clear
5:15 AM 48.2 °F - 42.8 °F 82% 30.03 in 10.0 mi West 12.7 mph - N/A   Clear
5:35 AM 48.2 °F - 42.8 °F 82% 30.03 in 10.0 mi West 13.8 mph - N/A   Mostly Cloudy
5:55 AM 48.2 °F - 42.8 °F 82% 30.03 in 10.0 mi West 12.7 mph - N/A   Mostly Cloudy
6:15 AM 48.2 °F - 42.8 °F 82% 30.04 in 10.0 mi West 11.5 mph - N/A   Scattered Clouds
6:35 AM 48.2 °F - 42.8 °F 82% 30.04 in 10.0 mi West 11.5 mph - N/A   Clear
6:55 AM 46.4 °F 40.7 °F 42.8 °F 87% 30.04 in 10.0 mi West 12.7 mph - N/A   Clear
7:15 AM 46.4 °F 41.1 °F 42.8 °F 87% 30.05 in 10.0 mi West 11.5 mph - N/A   Clear
7:35 AM 46.4 °F 41.1 °F 42.8 °F 87% 30.06 in 10.0 mi West 11.5 mph - N/A   Partly Cloudy
7:55 AM 46.4 °F 40.7 °F 42.8 °F 87% 30.06 in 10.0 mi West 12.7 mph - N/A   Clear
8:15 AM 48.2 °F - 42.8 °F 82% 30.07 in 10.0 mi West 11.5 mph - N/A   Clear
8:35 AM 50.0 °F - 42.8 °F 76% 30.07 in 10.0 mi WNW 15.0 mph - N/A   Partly Cloudy
8:55 AM 50.0 °F - 42.8 °F 76% 30.07 in 3.0 mi West 13.8 mph 21.9 mph N/A   Partly Cloudy
9:15 AM 51.8 °F - 42.8 °F 71% 30.08 in 10.0 mi West 16.1 mph 21.9 mph N/A   Clear
9:35 AM 53.6 °F - 42.8 °F 67% 30.08 in 10.0 mi WNW 16.1 mph 20.7 mph N/A   Clear
9:55 AM 55.4 °F - 44.6 °F 67% 30.08 in 10.0 mi WNW 18.4 mph - N/A   Clear
10:15 AM 55.4 °F - 42.8 °F 63% 30.07 in 10.0 mi West 17.3 mph 23.0 mph N/A   Clear
10:35 AM 57.2 °F - 42.8 °F 59% 30.07 in 10.0 mi WNW 15.0 mph 21.9 mph N/A   Clear
10:55 AM 57.2 °F - 42.8 °F 59% 30.07 in 10.0 mi WNW 21.9 mph 27.6 mph N/A   Scattered Clouds
11:15 AM 57.2 °F - 42.8 °F 59% 30.07 in 10.0 mi WNW 19.6 mph 28.8 mph N/A   Scattered Clouds
11:35 AM 59.0 °F - 42.8 °F 55% 30.07 in 10.0 mi NW 18.4 mph 32.2 mph N/A   Partly Cloudy
11:55 AM 59.0 °F - 42.8 °F 55% 30.07 in 10.0 mi WNW 15.0 mph 24.2 mph N/A   Clear
12:15 PM 60.8 °F - 42.8 °F 52% 30.06 in 10.0 mi WNW 17.3 mph 25.3 mph N/A   Clear
12:35 PM 60.8 °F - 41.0 °F 48% 30.05 in 10.0 mi WNW 20.7 mph 26.5 mph N/A   Clear
12:55 PM 60.8 °F - 42.8 °F 52% 30.05 in 10.0 mi NW 17.3 mph 24.2 mph N/A   Clear
1:15 PM 62.6 °F - 41.0 °F 45% 30.04 in 10.0 mi WNW 18.4 mph 25.3 mph N/A   Clear
1:35 PM 62.6 °F - 42.8 °F 48% 30.03 in 10.0 mi WNW 19.6 mph 24.2 mph N/A   Clear
1:55 PM 64.4 °F - 42.8 °F 45% 30.03 in 10.0 mi NW 19.6 mph 25.3 mph N/A   Clear
2:15 PM 64.4 °F - 41.0 °F 42% 30.02 in 10.0 mi WNW 19.6 mph 27.6 mph N/A   Clear
2:35 PM 64.4 °F - 41.0 °F 42% 30.01 in 10.0 mi NW 18.4 mph 24.2 mph N/A   Clear
2:55 PM 66.2 °F - 39.2 °F 37% 30.01 in 10.0 mi WNW 13.8 mph 24.2 mph N/A   Clear
3:15 PM 66.2 °F - 41.0 °F 40% 30.00 in 10.0 mi West 16.1 mph 20.7 mph N/A   Clear
3:35 PM 66.2 °F - 39.2 °F 37% 30.00 in 10.0 mi WNW 16.1 mph 21.9 mph N/A   Clear
3:55 PM 68.0 °F - 39.2 °F 35% 29.99 in 10.0 mi NW 19.6 mph - N/A   Clear
4:15 PM 66.2 °F - 39.2 °F 37% 29.99 in 10.0 mi NW 13.8 mph 20.7 mph N/A   Clear
4:35 PM 68.0 °F - 39.2 °F 35% 29.99 in 10.0 mi WNW 13.8 mph 23.0 mph N/A   Clear
4:55 PM 68.0 °F - 39.2 °F 35% 29.98 in 10.0 mi NW 11.5 mph - N/A   Clear
5:15 PM 68.0 °F - 37.4 °F 33% 29.98 in 10.0 mi WNW 13.8 mph 18.4 mph N/A   Clear
5:35 PM 66.2 °F - 39.2 °F 37% 29.98 in 10.0 mi NW 13.8 mph - N/A   Partly Cloudy
5:55 PM 66.2 °F - 37.4 °F 35% 29.98 in 10.0 mi NNW 8.1 mph - N/A   Clear
6:15 PM 66.2 °F - 39.2 °F 37% 29.98 in 10.0 mi NW 9.2 mph - N/A   Clear
6:35 PM 64.4 °F - 39.2 °F 40% 29.98 in 10.0 mi NNW 8.1 mph - N/A   Clear
6:55 PM 64.4 °F - 39.2 °F 40% 29.98 in 10.0 mi NNW 4.6 mph - N/A   Clear
7:15 PM 62.6 °F - 41.0 °F 45% 29.98 in 10.0 mi NNW 5.8 mph - N/A   Clear
7:35 PM 59.0 °F - 41.0 °F 51% 29.98 in 10.0 mi North 4.6 mph - N/A   Clear
7:55 PM 59.0 °F - 39.2 °F 48% 29.98 in 5.0 mi North 3.5 mph - N/A   Clear
8:15 PM 59.0 °F - 39.2 °F 48% 29.98 in 10.0 mi Calm Calm - N/A   Clear
8:35 PM 55.4 °F - 39.2 °F 54% 29.99 in 10.0 mi Calm Calm - N/A   Clear
8:55 PM 55.4 °F - 41.0 °F 58% 29.99 in 10.0 mi Calm Calm - N/A   Clear
9:15 PM 51.8 °F - 39.2 °F 62% 29.99 in 10.0 mi WNW 3.5 mph - N/A   Clear
9:35 PM 50.0 °F - 41.0 °F 71% 30.00 in 10.0 mi Calm Calm - N/A   Clear
9:55 PM 50.0 °F - 41.0 °F 71% 30.00 in 10.0 mi Calm Calm - N/A   Clear
10:15 PM 50.0 °F - 39.2 °F 66% 30.00 in 10.0 mi Calm Calm - N/A   Clear
10:35 PM 50.0 °F - 39.2 °F 66% 30.00 in 10.0 mi Calm Calm - N/A   Clear
10:55 PM 51.8 °F - 39.2 °F 62% 30.01 in 10.0 mi Calm Calm - N/A   Clear
11:15 PM 48.2 °F - 39.2 °F 71% 30.01 in 10.0 mi Calm Calm - N/A   Clear
11:35 PM 48.2 °F - 39.2 °F 71% 30.01 in 10.0 mi Calm Calm - N/A   Clear
11:55 PM 46.4 °F - 41.0 °F 81% 30.01 in 10.0 mi Calm Calm - N/A   Clear